Vertical_Velocity
-1 3 2 -4 -4 -4 -3 -3 -1 -0 -1 -6 -5 -5 -5 -3 -2 0 -1 -4 -1 -0 -1 -1 -1 -1 -1
3 4 3 -1 -3 -0 -2 -2 0 -3 -2 -3 -3 -4 -5 -6 -6 -5 -3 -2 -3 -4 -3 -2 -4 -2 -0
-5 -8 -2 -2 -1 -6 0 -3 1 -1 -0 -3 -3 -2 -1 -2 -2 -3 -3 -3 0 -2 -3 -3 -1 -3 -2
-4 -5 -8 4 -3 -6 2 -3 -2 1 1 -5 -3 -2 -4 -1 -0 -1 -1 -0 -1 -2 -1 0 -1 -2 -1
-1 -1 1 -1 -1 -5 -5 -4 -1 -3 -6 3 -6 0 3 3 0 0 -0 -1 -3 -5 -3 -3 -1 -0 -1
5 -4 2 -6 -1 -6 -3 -4 -15 -2 -11 -1 -2 -1 0 1 1 -3 -3 0 -2 -2 -2 -2 -2 -5 -4
-1 -4 -4 -5 -3 -2 -2 -3 -2 4 -6 -16 1 -4 -1 1 2 -2 -1 -3 -2 -3 -4 -6 -2 -3 -3
-4 1 -4 1 -1 -0 -1 -4 -7 0 5 -20 3 -6 -4 6 3 -1 -1 -3 -1 -1 -1 -3 -7 -6 -7
-2 -4 -4 1 3 -1 2 -2 -6 -0 8 -3 -2 -11 -4 3 3 2 -1 -2 -5 -5 -4 -1 -2 -6 -6
1 1 0 0 2 4 0 -5 -1 -12 7 -7 3 -7 -22 8 2 3 -1 1 -3 -5 -5 -3 -4 -8 -6
-0 1 2 0 1 6 2 -2 -1 -5 8 -9 -0 2 -4 -17 3 1 -4 -1 -1 -1 -0 3 0 -4 -9
0 2 0 -2 -0 -0 1 -0 -1 -2 6 -1 -8 -4 -5 -5 -11 5 3 2 -4 -2 1 2 3 1 1
-2 -4 -4 -3 -2 -1 -0 1 -2 2 1 -2 -4 -2 -3 -5 -14 1 -18 3 4 -3 0 -0 -5 -1 -3
-4 -4 -3 -0 2 -0 -2 0 -4 3 2 2 -3 -7 -1 -0 -7 -1 0 -16 -2 -0 -3 1 -2 3 -1
-1 0 1 -2 -0 -0 -1 -2 -2 -3 4 8 -0 -2 -2 -5 -4 1 -3 -3 -1 -3 -3 -2 5 -1 -1
-1 -1 -3 -2 -2 3 -2 -3 -2 2 -2 -4 -1 0 4 13 -9 -3 -2 -8 -2 1 -1 -8 3 2 2
-3 -1 -1 -1 -2 0 -1 -3 -1 -2 0 -3 -2 -4 -2 -2 9 -2 -5 -3 -3 2 -2 0 -3 -0 -4
Height
3048 3043 3038 3033 3029 3025 3020 3017 3012 3010 3007 3004 3001 2997 2994 2991 2988 2985 2983 2982 2979 2978 2977 2977 2976 2978 2980
3037 3034 3028 3024 3019 3014 3009 3005 3000 2996 2991 2988 2985 2982 2979 2977 2973 2971 2969 2967 2965 2964 2962 2963 2963 2963 2963
3024 3022 3016 3011 3006 3002 2997 2993 2990 2985 2982 2978 2975 2971 2968 2963 2959 2957 2956 2953 2951 2949 2949 2948 2948 2948 2949
3014 3009 3004 3000 2992 2987 2984 2982 2979 2978 2974 2970 2965 2960 2957 2952 2949 2946 2944 2941 2939 2938 2936 2935 2934 2933 2935
2999 2994 2992 2989 2983 2978 2974 2969 2967 2965 2962 2962 2956 2953 2948 2944 2939 2936 2933 2930 2928 2927 2924 2923 2922 2921 2920
2985 2981 2980 2975 2973 2968 2965 2960 2955 2956 2949 2952 2945 2943 2939 2935 2931 2927 2923 2920 2917 2915 2913 2912 2910 2909 2908
2974 2971 2967 2966 2961 2959 2956 2951 2948 2947 2939 2938 2935 2933 2930 2927 2923 2918 2914 2911 2908 2904 2902 2901 2900 2897 2896
2968 2963 2960 2958 2954 2949 2945 2941 2939 2939 2932 2927 2927 2924 2921 2919 2915 2911 2907 2903 2899 2896 2893 2890 2888 2887 2885
2958 2954 2952 2949 2946 2941 2937 2933 2930 2930 2928 2921 2919 2915 2913 2912 2909 2905 2901 2896 2891 2887 2883 2880 2878 2876 2874
2951 2946 2943 2941 2938 2933 2929 2925 2923 2920 2920 2914 2912 2908 2901 2904 2902 2899 2895 2890 2884 2878 2875 2872 2870 2866 2864
2939 2936 2935 2932 2930 2926 2922 2919 2916 2914 2912 2906 2904 2903 2898 2892 2894 2892 2888 2883 2877 2873 2869 2866 2862 2859 2854
2931 2929 2926 2923 2920 2917 2914 2911 2909 2907 2905 2901 2896 2895 2891 2888 2885 2885 2881 2878 2872 2867 2863 2859 2855 2852 2848
2924 2921 2917 2913 2910 2907 2905 2902 2901 2900 2898 2895 2891 2888 2886 2883 2879 2878 2872 2871 2868 2862 2857 2852 2848 2845 2840
2916 2912 2909 2906 2903 2900 2898 2896 2894 2894 2893 2889 2885 2882 2879 2878 2874 2872 2869 2863 2861 2857 2851 2848 2844 2840 2835
2910 2906 2903 2899 2897 2894 2892 2890 2889 2887 2887 2885 2880 2877 2873 2870 2869 2866 2862 2860 2856 2852 2847 2844 2840 2835 2831
2904 2900 2897 2894 2891 2889 2886 2885 2883 2882 2879 2876 2873 2870 2868 2868 2863 2860 2858 2855 2852 2849 2845 2839 2837 2833 2829
2898 2894 2891 2888 2886 2883 2881 2879 2877 2875 2872 2869 2866 2863 2861 2859 2860 2857 2852 2851 2847 2845 2841 2838 2834 2831 2828